Location: PACMO
(41.3967°N, 90.3760°W)
Time: 02:26:49
(UTC-06:00)

Daily predictions for brighter satellites

Satellite Brightness Start Highest point End
(mag) Time Altitude Azimuth Time Altitude Azimuth Time Altitude Azimuth
SJ 16-02 4.3 03:23:33 13° E 03:23:33 13° E 03:25:09 10° ENE
Cosmos 1980 Rocket 4.0 03:27:27 25° ESE 03:27:51 26° ESE 03:32:26 10° NE
Centaur D-1A AC-31 4.0 03:32:42 18° SE 03:32:42 18° SE 03:36:48 10° ESE
Cosmos 1697 Rocket 3.2 03:58:27 54° NE 03:58:27 54° NE 04:02:47 10° NNE
CENTAUR R/B 4.4 04:13:04 24° S 04:13:04 24° S 04:16:12 10° S
COSMOS 2455 4.0 04:02:54 11° NNW 04:08:22 40° NE 04:13:59 10° ESE
Cosmos 1934 Rocket 4.5 04:03:18 11° S 04:09:17 59° E 04:15:32 10° NNE
Aureole 1 Rocket 3.9 04:08:34 10° NNW 04:16:01 85° WSW 04:21:40 10° SSE
Okean O Rocket 2.4 04:13:02 10° NNE 04:16:24 48° NE 04:16:24 48° NE
BREEZE-M DEB (TANK) 4.5 04:20:56 44° S 04:20:56 44° S 04:30:40 10° SE
Cosmos 2123 Rocket 4.3 04:16:31 10° N 04:22:43 64° E 04:28:55 10° SSE
Cosmos 1125 Rocket 4.1 04:21:16 29° SSE 04:23:38 53° ESE 04:28:41 10° NNE
USA 215 4.1 04:24:38 10° SSE 04:28:44 31° SSW 04:28:44 31° SSW
CZ-4B R/B 3.3 04:25:35 10° NNE 04:31:04 76° ESE 04:34:57 20° S
Cosmos 1821 Rocket 3.8 04:32:45 55° SW 04:33:57 67° W 04:40:11 10° N
Lacrosse 5 rocket 3.1 04:38:16 21° SSE 04:38:16 21° SSE 04:39:50 10° SSE
ADEOS II 4.1 04:36:23 10° NNW 04:37:34 15° NNW 04:37:34 15° NNW
Cosmos 2263 Rocket 4.0 04:39:01 10° N 04:44:01 31° NE 04:49:01 10° ESE
Cosmos 1535 Rocket 4.4 04:43:40 32° SSW 04:46:32 62° W 04:52:36 10° N
CZ-4B DEB 4.1 04:44:01 10° N 04:49:27 65° WNW 04:51:58 32° SW
Cosmos 2360 4.1 04:47:45 40° SW 04:49:51 72° WNW 04:55:36 10° NNE
Cosmos 405 Rocket 4.0 04:46:30 10° SSE 04:50:15 42° E 04:53:57 10° NNE
CZ-2C R/B 4.3 04:46:14 10° NNE 04:50:50 33° E 04:55:27 10° SSE
EXPRESS MD2 4.1 04:51:29 41° NNW 04:52:43 62° NNE 04:59:43 10° ESE
BREEZE-M DEB (TANK) 2.7 04:54:27 37° SSE 04:54:27 37° SSE 04:55:54 10° SE
Meteor 2-10 Rocket 3.5 04:53:37 49° WNW 04:53:40 49° WNW 04:58:32 10° N
IRS-1C Rocket 4.0 04:49:05 10° NNE 04:54:23 86° WNW 04:59:39 10° SSW
Cosmos 468 4.4 04:50:06 10° NNW 04:55:18 67° WSW 05:00:28 10° S
Meteor 2-17 Rocket 4.3 04:54:50 10° S 05:00:54 83° W 05:07:01 10° N
SJ 16-02 1.4 05:00:36 50° W 05:01:07 54° WNW 05:05:27 10° N
Cosmos 2322 Rocket 3.1 04:55:49 10° S 05:01:14 49° ESE 05:06:44 10° NE
Cosmos 1733 Rocket 3.5 04:58:32 10° N 05:02:53 63° E 05:07:15 10° SSE
Cosmos 1862 Rocket 4.1 05:01:02 10° S 05:05:19 59° E 05:09:39 10° NNE
Cosmos 1269 Rocket 3.9 05:03:50 10° NNW 05:09:08 88° WSW 05:14:25 10° SSE
Cosmos 2227 4.1 05:05:16 10° NNW 05:10:54 75° WSW 05:16:29 10° SSE
Cosmos 1980 Rocket 2.5 05:09:16 30° WSW 05:11:34 45° WNW 05:17:00 10° NNE
CZ-3 R/B 3.5 05:03:26 22° WSW 05:14:02 39° SSW 05:20:29 10° SE
COSMO-SKYMED 1 2.6 05:10:08 10° SSE 05:14:28 81° ENE 05:18:50 10° N
CZ-2C R/B 3.6 05:10:20 10° S 05:15:00 73° WSW 05:19:37 10° NNW
Okean-O 3.1 05:11:30 10° NNE 05:15:55 63° ESE 05:20:18 10° S
Cosmos 1605 Rocket 3.9 05:13:33 10° SSW 05:19:34 58° W 05:25:35 10° N
ATLAS 5 CENTAUR R/B 1.6 05:17:17 16° SW 05:20:49 87° WNW 05:25:48 10° NE
Cosmos 405 3.0 05:19:25 10° NNW 05:22:55 57° W 05:26:26 10° S
NOAA 6 3.9 05:20:23 10° NNE 05:25:34 82° WNW 05:30:42 10° SSW
Cosmos 2100 Rocket 4.4 05:19:53 10° S 05:25:57 66° E 05:32:02 10° NNE
PAYLOAD A 3.8 05:22:49 10° N 05:27:38 81° WNW 05:32:35 10° SSW
Cosmos 1441 Rocket 3.3 05:26:57 10° SSW 05:30:52 59° W 05:34:50 10° N
Cosmos 1933 4.1 05:29:47 21° WSW 05:31:35 30° WNW 05:35:13 10° NNW
Meteor 1-31 Rocket 4.2 05:32:59 10° NNW 05:35:29 19° WNW 05:35:29 19° WNW
MSX 4.0 05:31:55 10° NNE 05:37:42 80° ESE 05:43:29 10° S
Hubble Space Telescope 3.1 05:39:16 10° SSW 05:41:12 13° S 05:43:08 10° SSE
Cosmos 1697 Rocket 4.2 05:40:13 16° WNW 05:41:48 17° NW 05:45:27 10° N
Cosmos 1782 3.1 05:41:17 10° S 05:45:17 71° E 05:49:20 10° NNE
IDEFIX/ARIANE 42P 2.7 05:41:00 10° N 05:46:06 54° WNW 05:51:08 10° SSW
SL-16 R/B 2.2 05:41:58 10° SSW 05:47:36 68° WNW 05:53:17 10° NNE
CZ-4 R/B 4.4 05:47:35 10° NE 05:50:25 19° E 05:53:15 10° SE
Cosmos 1459 Rocket 4.0 05:44:11 10° S 05:50:26 86° W 05:56:50 10° N
SJ-12 4.0 05:47:40 10° NNE 05:51:51 83° ESE 05:55:58 10° S
Cosmos 2173 Rocket 3.9 05:46:36 10° S 05:52:47 84° W 05:58:57 10° N
Okean O Rocket 3.4 05:51:20 10° NW 05:53:16 13° WNW 05:53:52 12° WNW
Cosmos 2016 Rocket 4.4 05:47:17 10° S 05:53:33 71° E 05:59:54 10° NNE
COSMOS 2455 3.4 05:48:48 10° NW 05:54:13 35° WSW 05:59:36 10° S
Cosmos 2251 Rocket 3.9 05:50:32 10° NNW 05:55:50 72° ENE 06:01:08 10° SSE
Cosmos 1782 Rocket 4.3 05:52:32 10° N 05:56:50 57° E 06:01:05 10° SSE
Cosmos 2061 Rocket 4.0 05:50:41 10° S 05:56:52 90° ENE 06:03:06 10° N
Meteor 1-4 Rocket 4.4 05:54:15 10° N 05:57:47 37° ENE 06:01:18 10° SE
Cosmos 1802 Rocket 4.1 05:51:29 10° S 05:57:54 90° NW 06:04:16 10° N
Aureole 2 Rocket 2.8 05:56:03 10° S 05:58:40 50° ESE 06:01:20 10° NNE
SKYMED 2 4.4 05:58:49 10° SSW 06:02:36 29° W 06:06:25 10° NW
Cosmos 1606 2.8 06:03:05 10° SSW 06:06:48 50° W 06:10:31 10° N
Sich 1 Rocket 3.5 06:05:07 10° N 06:09:31 77° W 06:13:53 10° S
Cosmos 1437 Rocket 2.8 06:05:53 10° NNW 06:09:56 72° W 06:13:53 10° S
Aureole 3 3.7 06:08:32 10° NW 06:11:01 24° W 06:13:38 10° SSW
USA 229 DEB 4.0 06:03:53 10° NW 06:11:07 84° NE 06:18:31 10° SE
USA 229 4.0 06:03:59 10° NW 06:11:13 84° NE 06:18:38 10° SE
Okean 2 Rocket 3.7 06:17:10 10° N 06:21:39 66° E 06:26:07 10° SSE
